SCP
-0 -0 0 0 -0 -0 -0 0 0 0 0 0 0 0 0 0 0 0 0 0 0 0 0 0 0 0 0 0 0 0 0 0 0 0 0 0 0 0 0 0 0 0 0 0 0
0 -0 0 0 0 0 -0 0 0 0 0 0 0 0 0 0 0 0 0 0 0 0 0 0 0 0 0 0 0 0 0 0 0 0 0 0 0 0 0 0 0 0 0 0 0
-0 0 0 -0 0 0 -0 0 0 -0 0 -0 0 0 0 0 0 0 0 0 0 0 0 0 0 0 0 0 0 0 0 0 0 0 0 0 0 0 0 0 0 0 0 0 0
0 0 0 0 0 -0 0 -0 -0 0 0 -0 0 0 0 0 0 0 0 0 0 0 0 0 0 0 0 0 0 0 0 0 0 0 0 0 0 0 0 0 0 0 0 0 0
0 -0 0 0 -0 -0 -0 0 -0 -0 -0 -0 0 0 0 0 0 0 0 0 0 0 0 0 0 0 0 0 0 0 0 0 0 0 0 0 0 0 0 0 0 0 0 0 0
-0 -0 0 0 -0 -0 -0 0 -0 -0 -0 0 0 0 0 0 0 0 0 0 0 0 0 0 0 0 0 0 0 0 0 0 0 0 0 0 0 0 0 0 0 0 0 0 0
-0 -0 -0 -0 0 0 0 0 0 -0 -0 0 0 0 0 0 0 0 0 0 0 0 0 0 0 0 0 0 0 0 0 0 0 0 0 0 0 0 0 0 0 0 0 0 0
-0 -0 -0 0 -0 0 0 0 0 0 0 0 0 0 0 0 0 0 0 0 0 0 0 0 0 0 0 0 0 0 0 0 0 0 0 0 0 0 0 0 0 0 0 0 0
-0 -0 -0 0 0 0 0 0 0 0 0 0 0 0 0 0 0 0 0 0 0 0 0 0 0 0 0 0 0 0 0 0 0 0 0 0 0 0 0 0 0 0 0 0 0
-0 0 -0 0 0 0 0 0 0 0 0 0 0 0 0 0 0 0 0 0 0 0 0 0 0 0 0 0 0 0 0 0 0 0 0 0 0 0 0 0 0 0 0 0 0
0 0 0 0 0 0 0 0 0 0 -0 -0 0 0 0 0 0 0 0 0 0 0 0 0 0 0 0 0 0 0 0 0 0 0 0 0 0 0 0 0 0 0 0 0 0
0 0 0 0 0 0 0 0 0 0 -0 -0 0 0 0 0 0 0 0 0 0 0 0 0 0 0 0 0 0 0 0 0 0 0 0 0 0 0 0 0 0 0 0 0 0
0 0 0 0 0 0 0 0 0 0 0 0 0 0 0 0 0 0 0 0 0 0 0 0 0 0 0 0 0 0 0 0 0 0 0 0 0 0 0 0 0 0 0 0 0
0 0 0 0 0 0 0 0 0 0 0 0 0 0 0 0 0 0 0 0 0 0 0 0 0 0 0 0 0 0 0 0 0 0 0 0 0 0 0 0 0 0 0 0 0
0 0 -0 -0 0 0 0 0 0 0 0 -0 -0 0 0 0 0 0 0 0 0 0 0 0 0 0 0 0 0 0 0 0 0 0 0 0 0 0 0 0 0 0 0 0 0
0 0 0 -0 -0 -0 0 0 0 -0 -0 -0 -0 0 0 0 0 0 0 0 0 0 0 0 0 0 0 0 0 0 0 0 0 0 0 0 0 0 0 0 0 0 0 0 0
0 0 0 -0 -0 -0 0 0 -0 -0 0 -0 -0 0 0 0 0 0 0 0 0 0 0 0 0 0 0 0 0 0 0 0 0 0 0 0 0 0 0 0 0 0 0 0 0
0 0 0 0 0 0 0 0 -0 -0 -0 -0 0 -0 0 0 0 0 0 0 0 0 0 0 0 0 0 0 0 0 0 0 0 0 0 0 0 0 0 0 0 0 0 0 0
0 0 0 0 0 0 0 0 0 -0 -0 -0 -0 0 0 0 0 0 0 0 0 0 0 0 0 0 0 0 0 0 0 0 0 0 0 0 0 0 0 0 0 0 0 0 0
0 0 0 0 0 0 0 0 0 -0 0 0 0 0 0 0 0 0 0 0 0 0 0 0 0 0 0 0 0 0 0 0 0 0 0 0 0 0 0 0 0 0 0 0 0
0 0 0 0 0 0 0 -0 0 0 0 0 0 0 0 0 0 0 0 0 0 0 0 0 0 0 0 0 0 0 0 0 0 0 0 0 0 0 0 0 0 0 0 0 0
0 0 0 0 0 0 0 0 0 0 0 0 0 0 0 0 0 0 0 0 0 0 0 0 0 0 0 0 0 0 0 0 0 0 0 0 0 0 0 0 0 0 0 0 0
0 0 0 0 0 0 0 0 0 0 0 0 -0 -0 -0 -0 -0 -0 -0 0 0 0 0 0 0 0 0 0 0 0 0 0 0 0 0 0 0 0 0 0 0 0 0 0 0
0 0 0 0 0 0 0 0 0 0 0 0 0 0 0 0 -0 -0 -0 -0 -0 -0 -0 -0 -0 0 0 0 -0 -0 -0 0 -0 0 0 -0 -0 -0 -0 -0 -0 -0 -0 0 0
0 0 0 0 0 0 0 0 0 0 0 0 0 0 0 0 0 -0 -0 -0 -0 -0 -0 -0 0 0 -0 -0 -0 -0 -0 -0 -0 -0 -0 -0 -0 -0 0 0 0 -0 -0 -0 0
0 0 0 0 0 0 0 0 0 0 0 0 0 0 0 0 0 0 -0 -0 -0 0 0 0 0 0 -0 -0 -0 -0 -0 -0 -0 -0 -0 -0 -0 -0 -0 0 0 0 0 0 0
0 0 0 0 0 0 0 -0 -0 0 0 0 0 0 0 0 -0 -0 -0 -0 -0 -0 -0 -0 -0 0 -0 -0 -0 -0 -0 -0 -0 -0 -0 -0 -0 -0 -0 -0 0 -0 -0 -0 0
Wind_Speed_500mb
35 37 43 33 28 9 19 34 46 45 29 57 51 38 45 38 45 42 29 14 7 33 39 38 27 30 28 14 5 4 9 19 13 28 19 22 14 5 3 19 14 10 18 25 19
30 34 35 39 23 22 19 37 48 41 32 46 43 37 46 51 34 27 21 26 30 39 29 38 39 39 23 11 4 7 11 13 16 14 23 22 18 15 12 20 21 22 21 19 16
29 34 35 37 27 28 33 43 55 46 53 44 39 44 64 45 28 8 22 29 37 42 28 31 37 34 22 14 5 8 8 18 13 15 20 16 16 6 18 12 12 21 20 15 11
32 34 34 34 37 36 58 54 59 50 47 47 44 55 53 13 9 3 20 27 34 36 27 35 41 29 21 16 4 13 10 10 11 8 10 13 9 12 8 14 12 18 14 10 6
49 44 37 36 40 33 54 47 46 45 45 47 56 47 23 19 17 4 22 30 33 34 21 35 41 27 21 17 22 25 19 21 19 19 16 9 9 9 14 11 9 9 10 8 7
54 50 43 42 36 40 31 45 45 48 51 53 45 27 25 30 16 10 24 33 23 23 19 27 19 11 23 15 4 19 30 25 16 18 14 6 6 4 11 11 11 11 11 11 11
48 49 45 39 43 41 36 53 56 54 48 43 44 38 47 25 21 14 25 30 33 20 21 21 20 7 26 26 28 33 23 18 12 7 7 2 7 14 14 12 14 16 16 16 15
54 51 50 45 44 59 56 43 42 43 43 41 35 22 23 25 20 29 24 28 27 25 24 25 25 27 13 34 15 9 15 13 8 2 4 4 8 16 16 16 19 19 19 20 20
44 47 44 43 37 50 46 40 41 35 35 27 22 23 20 19 18 22 22 25 30 30 33 27 18 18 19 20 15 7 13 18 10 5 5 11 9 13 19 20 24 24 24 23 24
29 40 40 43 44 38 32 48 37 30 26 25 17 16 16 13 24 20 28 21 18 25 22 11 9 12 13 4 9 15 11 9 12 6 7 13 23 10 20 27 30 29 28 27 25
44 31 36 26 22 22 11 12 13 25 59 43 30 44 19 19 21 19 23 17 15 10 8 13 15 15 12 5 5 11 9 13 9 6 9 18 23 23 24 36 39 39 35 29 24
33 30 30 27 28 19 20 25 18 19 37 41 40 36 27 17 19 20 20 8 9 11 20 12 15 9 6 7 12 9 12 8 7 4 8 16 32 30 31 41 41 37 36 30 23
32 24 17 27 35 45 43 35 21 16 12 27 30 22 17 23 19 25 16 13 25 18 13 16 14 5 11 14 15 16 5 5 7 7 5 18 25 29 19 14 21 25 26 25 22
25 20 11 16 23 30 21 15 10 13 7 19 20 18 18 4 12 20 14 7 9 15 18 18 7 8 13 13 13 7 8 7 7 5 4 7 11 18 14 19 20 22 24 24 22
23 20 16 12 5 7 11 11 10 8 5 15 10 9 18 13 6 21 21 24 17 11 4 4 12 11 15 8 8 6 4 6 7 4 6 11 6 11 10 18 24 23 26 24 21
20 18 19 14 7 7 8 5 6 4 7 6 8 10 7 23 10 7 13 19 10 27 30 19 8 10 7 13 14 13 3 3 3 3 5 5 6 5 14 11 2 3 18 21 19
17 19 22 19 8 8 4 4 5 6 2 5 10 8 12 13 12 9 10 13 6 9 7 10 10 7 4 5 5 1 3 4 4 4 7 5 6 22 11 7 3 7 11 13 16
19 16 19 21 7 2 5 1 10 4 5 3 5 15 9 10 8 7 5 6 12 8 6 6 4 1 6 4 1 3 3 3 7 5 7 7 12 7 4 2 11 15 14 13 17
14 9 19 17 10 7 2 9 8 6 9 9 8 5 6 5 2 3 6 5 7 9 2 6 6 5 3 2 3 3 4 4 6 2 6 10 11 26 22 21 19 15 13 14 12
6 2 20 12 10 12 7 9 6 6 6 3 5 4 6 5 5 5 6 3 4 6 9 4 6 2 6 2 3 6 6 3 3 6 9 9 11 11 7 8 11 22 14 9 4
7 2 24 10 15 10 7 11 11 6 2 5 5 6 8 6 4 3 5 5 1 4 5 3 1 6 4 13 14 7 7 9 7 6 7 10 6 7 9 10 8 19 19 14 11
7 1 22 11 3 8 9 10 11 9 4 5 6 8 5 3 5 5 3 7 5 2 2 5 3 6 8 6 5 19 15 17 8 7 8 8 14 11 9 7 9 16 19 21 21
3 4 18 10 6 7 7 9 5 6 3 2 4 2 4 6 2 5 4 5 8 3 2 3 4 4 7 9 7 11 18 21 15 2 16 8 9 4 4 6 14 21 22 22 28
4 1 10 15 13 18 12 8 6 4 4 2 5 3 6 4 1 7 7 5 9 5 1 4 5 11 6 4 2 8 15 25 22 11 14 27 31 39 33 27 25 25 30 34 42
9 6 4 3 9 14 4 6 11 5 0 3 4 7 3 4 6 5 6 6 8 9 7 5 9 15 23 25 25 32 32 29 35 42 23 26 34 42 30 26 37 41 45 46 41
5 2 5 7 3 4 4 8 8 8 9 5 5 9 7 2 4 2 10 9 7 16 12 7 7 13 15 27 26 34 39 42 46 46 54 52 63 50 57 28 9 13 20 24 32
9 8 2 4 4 5 3 8 14 12 6 2 5 3 9 8 5 3 4 3 4 8 16 7 6 8 10 2 19 29 37 43 38 39 42 41 52 41 36 39 42 38 37 40 39
Wind_Direction_500mb
12 18 26 44 53 110 60 174 181 170 148 183 153 156 162 158 141 130 139 160 145 162 149 154 149 150 156 152 95 244 203 177 170 177 143 156 151 122 110 119 83 65 92 122 135
21 26 30 31 60 77 56 143 151 158 169 145 151 155 145 135 139 141 157 167 158 153 146 156 154 153 153 141 21 278 229 98 5 34 145 154 153 129 149 133 111 105 109 119 122
34 31 31 44 50 45 89 110 150 141 149 149 147 151 134 134 141 106 165 162 158 151 148 159 152 155 149 159 29 19 73 122 66 50 131 131 131 126 150 135 109 137 134 131 127
41 36 29 45 46 77 90 98 111 123 132 136 139 139 127 129 169 323 160 158 159 153 138 154 159 157 156 155 116 111 85 112 113 78 128 124 124 99 56 100 111 128 142 147 156
46 45 46 46 53 86 87 110 113 125 132 132 133 132 101 93 50 49 142 144 147 145 141 159 163 148 141 131 103 107 114 97 98 92 78 119 94 102 122 132 142 157 170 188 203
39 48 52 63 75 88 95 114 118 124 127 131 123 103 114 80 20 77 128 135 134 141 122 158 161 143 110 99 27 123 119 111 88 85 73 139 119 193 172 166 174 186 203 214 221
50 57 61 71 90 94 110 118 119 122 126 123 102 99 87 70 30 67 123 130 135 137 124 123 123 181 128 104 116 128 116 116 77 77 71 55 204 221 157 175 199 212 220 227 244
49 59 67 67 103 100 95 99 117 118 124 123 95 96 80 74 64 74 97 115 129 139 145 110 104 93 94 119 127 138 166 161 85 359 91 250 245 163 189 195 215 223 234 244 255
50 58 62 59 99 110 81 87 117 117 115 114 77 90 76 65 76 52 83 100 119 127 121 108 91 91 130 130 130 207 189 200 140 54 298 225 244 152 200 214 230 235 244 253 263
53 65 70 77 87 116 84 84 92 100 105 72 55 72 48 39 84 69 107 99 102 110 95 66 94 121 139 122 168 179 167 197 188 74 247 241 254 188 215 230 240 245 252 259 262
54 56 78 81 64 87 75 69 74 46 61 65 68 89 76 63 72 63 99 97 84 93 100 30 120 115 87 58 25 153 180 178 71 41 305 251 268 268 238 236 248 252 254 256 251
43 45 62 70 42 77 80 79 79 118 74 61 70 70 59 35 86 53 59 113 95 93 117 98 99 78 83 88 96 136 142 101 119 38 308 298 284 270 251 243 244 254 256 249 240
38 63 74 46 79 89 88 83 84 85 101 40 39 40 39 49 44 14 37 72 78 70 92 92 91 107 104 88 99 55 45 88 5 326 254 305 273 254 229 260 243 244 246 235 229
36 32 47 69 75 87 68 28 27 38 83 11 4 22 3 39 64 27 42 43 66 89 72 68 52 94 97 73 353 124 34 48 20 11 280 342 288 272 248 216 217 228 221 222 220
26 23 15 31 45 4 310 326 359 28 101 358 8 21 26 61 119 23 27 60 73 72 232 74 79 71 59 20 356 98 85 61 47 62 329 192 253 259 246 258 240 228 221 215 217
23 23 16 7 355 317 323 13 28 36 84 9 5 8 73 43 49 52 62 79 73 69 74 89 77 39 69 59 66 130 137 74 100 111 250 133 246 258 249 279 152 217 197 211 220
10 9 9 3 313 318 352 56 45 43 272 69 43 59 81 37 50 38 58 53 69 88 33 73 33 76 34 88 113 352 256 325 241 204 278 130 238 256 256 219 232 145 173 211 249
343 351 359 358 354 7 90 220 56 52 49 82 66 76 69 17 54 46 93 93 66 52 128 158 166 34 18 41 52 135 173 267 272 283 332 161 238 261 333 238 240 244 238 256 266
339 355 2 8 18 87 221 51 39 79 124 138 134 61 91 75 73 98 52 61 32 2 77 152 121 127 64 42 7 140 226 29 302 141 262 244 261 269 244 244 228 222 235 258 261
19 108 2 17 60 92 75 97 96 75 105 270 130 304 139 117 177 204 176 58 93 14 341 103 108 203 113 223 173 269 137 169 179 279 270 237 250 252 282 268 231 209 207 200 257
78 164 356 23 80 56 81 83 112 106 19 3 78 118 94 124 81 88 85 127 83 101 2 140 96 137 189 211 191 169 209 222 301 255 277 301 260 191 236 245 190 179 194 217 268
61 0 360 48 353 50 63 108 122 132 110 99 89 72 61 99 117 103 84 48 104 159 107 55 315 193 213 104 275 257 246 217 244 174 244 304 273 351 297 257 253 249 245 256 277
31 35 10 87 74 83 107 97 58 140 128 141 110 19 164 141 139 115 154 125 148 157 38 118 211 249 190 183 188 238 221 236 245 333 239 262 254 77 24 305 272 269 270 264 291
25 12 33 55 62 116 132 135 115 65 92 73 109 131 165 171 38 159 152 149 183 179 28 188 260 245 283 341 328 217 223 224 217 233 256 231 271 268 285 293 284 277 274 280 297
36 62 39 57 80 108 116 149 142 153 188 192 169 242 226 164 183 191 151 162 183 193 208 265 253 249 265 268 259 253 254 233 222 230 249 267 264 272 284 289 287 281 278 283 288
42 3 74 76 22 166 171 162 180 147 172 194 256 179 192 249 321 237 178 201 215 188 208 210 279 301 280 260 258 265 257 248 246 243 246 262 273 282 286 307 341 324 308 288 284
37 60 18 142 147 273 39 159 178 163 172 131 211 223 219 252 255 189 220 285 304 195 207 219 273 310 275 204 283 276 255 238 242 244 246 251 257 280 291 291 298 303 295 288 287
Wind_Speed_850mb
35 37 43 33 28 9 19 34 46 45 29 57 51 38 45 38 45 42 29 14 7 33 39 38 27 30 28 14 5 4 9 19 13 28 19 22 14 5 3 19 14 10 18 25 19
30 34 35 39 23 22 19 37 48 41 32 46 43 37 46 51 34 27 21 26 30 39 29 38 39 39 23 11 4 7 11 13 16 14 23 22 18 15 12 20 21 22 21 19 16
29 34 35 37 27 28 33 43 55 46 53 44 39 44 64 45 28 8 22 29 37 42 28 31 37 34 22 14 5 8 8 18 13 15 20 16 16 6 18 12 12 21 20 15 11
32 34 34 34 37 36 58 54 59 50 47 47 44 55 53 13 9 3 20 27 34 36 27 35 41 29 21 16 4 13 10 10 11 8 10 13 9 12 8 14 12 18 14 10 6
49 44 37 36 40 33 54 47 46 45 45 47 56 47 23 19 17 4 22 30 33 34 21 35 41 27 21 17 22 25 19 21 19 19 16 9 9 9 14 11 9 9 10 8 7
54 50 43 42 36 40 31 45 45 48 51 53 45 27 25 30 16 10 24 33 23 23 19 27 19 11 23 15 4 19 30 25 16 18 14 6 6 4 11 11 11 11 11 11 11
48 49 45 39 43 41 36 53 56 54 48 43 44 38 47 25 21 14 25 30 33 20 21 21 20 7 26 26 28 33 23 18 12 7 7 2 7 14 14 12 14 16 16 16 15
54 51 50 45 44 59 56 43 42 43 43 41 35 22 23 25 20 29 24 28 27 25 24 25 25 27 13 34 15 9 15 13 8 2 4 4 8 16 16 16 19 19 19 20 20
44 47 44 43 37 50 46 40 41 35 35 27 22 23 20 19 18 22 22 25 30 30 33 27 18 18 19 20 15 7 13 18 10 5 5 11 9 13 19 20 24 24 24 23 24
29 40 40 43 44 38 32 48 37 30 26 25 17 16 16 13 24 20 28 21 18 25 22 11 9 12 13 4 9 15 11 9 12 6 7 13 23 10 20 27 30 29 28 27 25
44 31 36 26 22 22 11 12 13 25 59 43 30 44 19 19 21 19 23 17 15 10 8 13 15 15 12 5 5 11 9 13 9 6 9 18 23 23 24 36 39 39 35 29 24
33 30 30 27 28 19 20 25 18 19 37 41 40 36 27 17 19 20 20 8 9 11 20 12 15 9 6 7 12 9 12 8 7 4 8 16 32 30 31 41 41 37 36 30 23
32 24 17 27 35 45 43 35 21 16 12 27 30 22 17 23 19 25 16 13 25 18 13 16 14 5 11 14 15 16 5 5 7 7 5 18 25 29 19 14 21 25 26 25 22
25 20 11 16 23 30 21 15 10 13 7 19 20 18 18 4 12 20 14 7 9 15 18 18 7 8 13 13 13 7 8 7 7 5 4 7 11 18 14 19 20 22 24 24 22
23 20 16 12 5 7 11 11 10 8 5 15 10 9 18 13 6 21 21 24 17 11 4 4 12 11 15 8 8 6 4 6 7 4 6 11 6 11 10 18 24 23 26 24 21
20 18 19 14 7 7 8 5 6 4 7 6 8 10 7 23 10 7 13 19 10 27 30 19 8 10 7 13 14 13 3 3 3 3 5 5 6 5 14 11 2 3 18 21 19
17 19 22 19 8 8 4 4 5 6 2 5 10 8 12 13 12 9 10 13 6 9 7 10 10 7 4 5 5 1 3 4 4 4 7 5 6 22 11 7 3 7 11 13 16
19 16 19 21 7 2 5 1 10 4 5 3 5 15 9 10 8 7 5 6 12 8 6 6 4 1 6 4 1 3 3 3 7 5 7 7 12 7 4 2 11 15 14 13 17
14 9 19 17 10 7 2 9 8 6 9 9 8 5 6 5 2 3 6 5 7 9 2 6 6 5 3 2 3 3 4 4 6 2 6 10 11 26 22 21 19 15 13 14 12
6 2 20 12 10 12 7 9 6 6 6 3 5 4 6 5 5 5 6 3 4 6 9 4 6 2 6 2 3 6 6 3 3 6 9 9 11 11 7 8 11 22 14 9 4
7 2 24 10 15 10 7 11 11 6 2 5 5 6 8 6 4 3 5 5 1 4 5 3 1 6 4 13 14 7 7 9 7 6 7 10 6 7 9 10 8 19 19 14 11
7 1 22 11 3 8 9 10 11 9 4 5 6 8 5 3 5 5 3 7 5 2 2 5 3 6 8 6 5 19 15 17 8 7 8 8 14 11 9 7 9 16 19 21 21
3 4 18 10 6 7 7 9 5 6 3 2 4 2 4 6 2 5 4 5 8 3 2 3 4 4 7 9 7 11 18 21 15 2 16 8 9 4 4 6 14 21 22 22 28
4 1 10 15 13 18 12 8 6 4 4 2 5 3 6 4 1 7 7 5 9 5 1 4 5 11 6 4 2 8 15 25 22 11 14 27 31 39 33 27 25 25 30 34 42
9 6 4 3 9 14 4 6 11 5 0 3 4 7 3 4 6 5 6 6 8 9 7 5 9 15 23 25 25 32 32 29 35 42 23 26 34 42 30 26 37 41 45 46 41
5 2 5 7 3 4 4 8 8 8 9 5 5 9 7 2 4 2 10 9 7 16 12 7 7 13 15 27 26 34 39 42 46 46 54 52 63 50 57 28 9 13 20 24 32
9 8 2 4 4 5 3 8 14 12 6 2 5 3 9 8 5 3 4 3 4 8 16 7 6 8 10 2 19 29 37 43 38 39 42 41 52 41 36 39 42 38 37 40 39
Wind_Direction_850mb
12 18 26 44 53 110 60 174 181 170 148 183 153 156 162 158 141 130 139 160 145 162 149 154 149 150 156 152 95 244 203 177 170 177 143 156 151 122 110 119 83 65 92 122 135
21 26 30 31 60 77 56 143 151 158 169 145 151 155 145 135 139 141 157 167 158 153 146 156 154 153 153 141 21 278 229 98 5 34 145 154 153 129 149 133 111 105 109 119 122
34 31 31 44 50 45 89 110 150 141 149 149 147 151 134 134 141 106 165 162 158 151 148 159 152 155 149 159 29 19 73 122 66 50 131 131 131 126 150 135 109 137 134 131 127
41 36 29 45 46 77 90 98 111 123 132 136 139 139 127 129 169 323 160 158 159 153 138 154 159 157 156 155 116 111 85 112 113 78 128 124 124 99 56 100 111 128 142 147 156
46 45 46 46 53 86 87 110 113 125 132 132 133 132 101 93 50 49 142 144 147 145 141 159 163 148 141 131 103 107 114 97 98 92 78 119 94 102 122 132 142 157 170 188 203
39 48 52 63 75 88 95 114 118 124 127 131 123 103 114 80 20 77 128 135 134 141 122 158 161 143 110 99 27 123 119 111 88 85 73 139 119 193 172 166 174 186 203 214 221
50 57 61 71 90 94 110 118 119 122 126 123 102 99 87 70 30 67 123 130 135 137 124 123 123 181 128 104 116 128 116 116 77 77 71 55 204 221 157 175 199 212 220 227 244
49 59 67 67 103 100 95 99 117 118 124 123 95 96 80 74 64 74 97 115 129 139 145 110 104 93 94 119 127 138 166 161 85 359 91 250 245 163 189 195 215 223 234 244 255
50 58 62 59 99 110 81 87 117 117 115 114 77 90 76 65 76 52 83 100 119 127 121 108 91 91 130 130 130 207 189 200 140 54 298 225 244 152 200 214 230 235 244 253 263
53 65 70 77 87 116 84 84 92 100 105 72 55 72 48 39 84 69 107 99 102 110 95 66 94 121 139 122 168 179 167 197 188 74 247 241 254 188 215 230 240 245 252 259 262
54 56 78 81 64 87 75 69 74 46 61 65 68 89 76 63 72 63 99 97 84 93 100 30 120 115 87 58 25 153 180 178 71 41 305 251 268 268 238 236 248 252 254 256 251
43 45 62 70 42 77 80 79 79 118 74 61 70 70 59 35 86 53 59 113 95 93 117 98 99 78 83 88 96 136 142 101 119 38 308 298 284 270 251 243 244 254 256 249 240
38 63 74 46 79 89 88 83 84 85 101 40 39 40 39 49 44 14 37 72 78 70 92 92 91 107 104 88 99 55 45 88 5 326 254 305 273 254 229 260 243 244 246 235 229
36 32 47 69 75 87 68 28 27 38 83 11 4 22 3 39 64 27 42 43 66 89 72 68 52 94 97 73 353 124 34 48 20 11 280 342 288 272 248 216 217 228 221 222 220
26 23 15 31 45 4 310 326 359 28 101 358 8 21 26 61 119 23 27 60 73 72 232 74 79 71 59 20 356 98 85 61 47 62 329 192 253 259 246 258 240 228 221 215 217
23 23 16 7 355 317 323 13 28 36 84 9 5 8 73 43 49 52 62 79 73 69 74 89 77 39 69 59 66 130 137 74 100 111 250 133 246 258 249 279 152 217 197 211 220
10 9 9 3 313 318 352 56 45 43 272 69 43 59 81 37 50 38 58 53 69 88 33 73 33 76 34 88 113 352 256 325 241 204 278 130 238 256 256 219 232 145 173 211 249
343 351 359 358 354 7 90 220 56 52 49 82 66 76 69 17 54 46 93 93 66 52 128 158 166 34 18 41 52 135 173 267 272 283 332 161 238 261 333 238 240 244 238 256 266
339 355 2 8 18 87 221 51 39 79 124 138 134 61 91 75 73 98 52 61 32 2 77 152 121 127 64 42 7 140 226 29 302 141 262 244 261 269 244 244 228 222 235 258 261
19 108 2 17 60 92 75 97 96 75 105 270 130 304 139 117 177 204 176 58 93 14 341 103 108 203 113 223 173 269 137 169 179 279 270 237 250 252 282 268 231 209 207 200 257
78 164 356 23 80 56 81 83 112 106 19 3 78 118 94 124 81 88 85 127 83 101 2 140 96 137 189 211 191 169 209 222 301 255 277 301 260 191 236 245 190 179 194 217 268
61 0 360 48 353 50 63 108 122 132 110 99 89 72 61 99 117 103 84 48 104 159 107 55 315 193 213 104 275 257 246 217 244 174 244 304 273 351 297 257 253 249 245 256 277
31 35 10 87 74 83 107 97 58 140 128 141 110 19 164 141 139 115 154 125 148 157 38 118 211 249 190 183 188 238 221 236 245 333 239 262 254 77 24 305 272 269 270 264 291
25 12 33 55 62 116 132 135 115 65 92 73 109 131 165 171 38 159 152 149 183 179 28 188 260 245 283 341 328 217 223 224 217 233 256 231 271 268 285 293 284 277 274 280 297
36 62 39 57 80 108 116 149 142 153 188 192 169 242 226 164 183 191 151 162 183 193 208 265 253 249 265 268 259 253 254 233 222 230 249 267 264 272 284 289 287 281 278 283 288
42 3 74 76 22 166 171 162 180 147 172 194 256 179 192 249 321 237 178 201 215 188 208 210 279 301 280 260 258 265 257 248 246 243 246 262 273 282 286 307 341 324 308 288 284
37 60 18 142 147 273 39 159 178 163 172 131 211 223 219 252 255 189 220 285 304 195 207 219 273 310 275 204 283 276 255 238 242 244 246 251 257 280 291 291 298 303 295 288 287